• In Hungary
  • List of Countries
  • For 7 days
  • Water Temperature
  • Satellite Maps
  • Weather Map
  • News
  • Weather Widgets
  • user-avatar
    Login

    Hourly Weather Maevka

    Today, 18 August, Saturday

    Time Temperature Precipitation Wind Pressure Humidity
    00:00 +15°C° 0 mm 2 mps 750 mmHg 74%
    01:00 +15°C° 0 mm 2 mps 750 mmHg 75%
    02:00 +14°C° 0 mm 2 mps 750 mmHg 76%
    03:00 +13°C° 0 mm 3 mps 750 mmHg 78%
    04:00 +14°C° 0 mm 2 mps 750 mmHg 80%
    05:00 +14°C° 0 mm 2 mps 751 mmHg 82%
    06:00 +14°C° 0 mm 2 mps 751 mmHg 83%
    07:00 +16°C° 0 mm 2 mps 751 mmHg 78%
    08:00 +18°C° 0 mm 2 mps 751 mmHg 73%
    09:00 +20°C° 0 mm 2 mps 751 mmHg 68%
    10:00 +21°C° 0 mm 2 mps 751 mmHg 63%
    11:00 +23°C° 0 mm 2 mps 751 mmHg 58%
    12:00 +24°C° 0 mm 3 mps 751 mmHg 53%
    13:00 +24°C° 0 mm 2 mps 751 mmHg 52%
    14:00 +25°C° 0 mm 2 mps 751 mmHg 50%
    15:00 +25°C° 0 mm 2 mps 750 mmHg 48%
    16:00 +25°C° 0 mm 2 mps 750 mmHg 52%
    17:00 +25°C° 0 mm 1 mps 750 mmHg 55%
    18:00 +24°C° 0 mm 1 mps 750 mmHg 58%
    19:00 +22°C° 0 mm 1 mps 750 mmHg 61%
    20:00 +21°C° 0 mm 1 mps 750 mmHg 64%
    21:00 +19°C° 0 mm 1 mps 750 mmHg 67%
    22:00 +18°C° 0 mm 1 mps 750 mmHg 68%
    23:00 +18°C° 0 mm 1 mps 750 mmHg 70%

    Tomorrow, 19 August, Sunday

    Time Temperature Precipitation Wind Pressure Humidity
    00:00 +16°C° 0 mm 1 mps 750 mmHg 71%
    01:00 +16°C° 0 mm 1 mps 751 mmHg 72%
    02:00 +16°C° 0 mm 1 mps 751 mmHg 74%
    03:00 +15°C° 0 mm 1 mps 751 mmHg 75%
    04:00 +15°C° 0 mm 1 mps 751 mmHg 77%
    05:00 +15°C° 0 mm 2 mps 751 mmHg 79%
    06:00 +15°C° 0 mm 2 mps 751 mmHg 80%
    07:00 +17°C° 0 mm 2 mps 751 mmHg 75%
    08:00 +18°C° 0 mm 2 mps 751 mmHg 70%
    09:00 +20°C° 0 mm 2 mps 751 mmHg 65%
    10:00 +22°C° 0 mm 3 mps 751 mmHg 61%
    11:00 +24°C° 0 mm 3 mps 750 mmHg 57%
    12:00 +25°C° 0 mm 3 mps 750 mmHg 53%
    13:00 +25°C° 0 mm 3 mps 750 mmHg 52%
    14:00 +26°C° 0 mm 3 mps 749 mmHg 51%
    15:00 +26°C° 0 mm 4 mps 749 mmHg 51%
    16:00 +26°C° 0 mm 3 mps 749 mmHg 55%
    17:00 +25°C° 0 mm 3 mps 748 mmHg 58%
    18:00 +25°C° 0 mm 3 mps 748 mmHg 62%
    19:00 +22°C° 0 mm 3 mps 748 mmHg 65%
    20:00 +20°C° 0 mm 3 mps 748 mmHg 68%
    21:00 +19°C° 0 mm 3 mps 748 mmHg 71%
    22:00 +18°C° 0 mm 3 mps 748 mmHg 71%
    23:00 +18°C° 0 mm 3 mps 748 mmHg 71%

    Day after tomorrow, 20 August, Monday

    Time Temperature Precipitation Wind Pressure Humidity
    00:00 +17°C° 0 mm 3 mps 748 mmHg 71%
    01:00 +17°C° 0 mm 3 mps 747 mmHg 72%
    02:00 +17°C° 0 mm 3 mps 747 mmHg 73%
    03:00 +16°C° 0 mm 3 mps 747 mmHg 74%
    04:00 +16°C° 0 mm 3 mps 747 mmHg 75%
    05:00 +16°C° 0 mm 3 mps 747 mmHg 77%
    06:00 +16°C° 0 mm 3 mps 747 mmHg 79%
    07:00 +18°C° 0 mm 3 mps 747 mmHg 75%
    08:00 +19°C° 0 mm 4 mps 746 mmHg 71%
    09:00 +21°C° 0 mm 4 mps 746 mmHg 67%
    10:00 +22°C° 0 mm 4 mps 746 mmHg 65%
    11:00 +25°C° 0 mm 4 mps 746 mmHg 62%
    12:00 +26°C° 0 mm 5 mps 746 mmHg 59%
    13:00 +26°C° 0.2 mm 5 mps 746 mmHg 59%
    14:00 +27°C° 0.2 mm 5 mps 745 mmHg 59%
    15:00 +27°C° 0.2 mm 5 mps 745 mmHg 59%
    16:00 +27°C° 0.5 mm 4 mps 745 mmHg 63%
    17:00 +26°C° 0.5 mm 4 mps 745 mmHg 68%
    18:00 +25°C° 0.5 mm 3 mps 744 mmHg 72%
    19:00 +24°C° 0 mm 3 mps 745 mmHg 77%
    20:00 +21°C° 0 mm 2 mps 745 mmHg 81%
    21:00 +20°C° 0 mm 2 mps 745 mmHg 86%
    22:00 +19°C° 0 mm 2 mps 745 mmHg 87%
    23:00 +19°C° 0 mm 2 mps 745 mmHg 88%

    21 August, Tuesday

    Time Temperature Precipitation Wind Pressure Humidity
    00:00 +18°C° 0 mm 2 mps 745 mmHg 89%
    01:00 +18°C° 0 mm 2 mps 744 mmHg 90%
    02:00 +17°C° 0 mm 2 mps 744 mmHg 90%
    03:00 +17°C° 0 mm 2 mps 744 mmHg 91%
    04:00 +17°C° 0 mm 2 mps 744 mmHg 92%
    05:00 +17°C° 0 mm 2 mps 744 mmHg 92%
    06:00 +17°C° 0 mm 2 mps 744 mmHg 93%
    07:00 +18°C° 0 mm 2 mps 744 mmHg 87%
    08:00 +20°C° 0 mm 3 mps 744 mmHg 82%
    09:00 +21°C° 0 mm 3 mps 744 mmHg 77%
    10:00 +23°C° 0 mm 4 mps 743 mmHg 71%
    11:00 +25°C° 0 mm 5 mps 743 mmHg 66%
    12:00 +26°C° 0 mm 5 mps 743 mmHg 60%
    13:00 +27°C° 0 mm 6 mps 742 mmHg 58%
    14:00 +27°C° 0 mm 6 mps 742 mmHg 57%
    15:00 +28°C° 0 mm 7 mps 741 mmHg 55%
    16:00 +27°C° 0.2 mm 6 mps 741 mmHg 60%
    17:00 +26°C° 0.2 mm 6 mps 741 mmHg 65%
    18:00 +24°C° 0.2 mm 6 mps 740 mmHg 70%
    19:00 +23°C° 0.3 mm 5 mps 740 mmHg 74%
    20:00 +22°C° 0.3 mm 5 mps 740 mmHg 79%
    21:00 +21°C° 0.3 mm 5 mps 740 mmHg 83%
    22:00 +20°C° 0.3 mm 5 mps 740 mmHg 86%
    23:00 +19°C° 0.3 mm 5 mps 740 mmHg 88%

    22 August, Wednesday

    Time Temperature Precipitation Wind Pressure Humidity
    00:00 +17°C° 0.3 mm 5 mps 740 mmHg 91%
    01:00 +16°C° 0 mm 5 mps 741 mmHg 92%
    02:00 +15°C° 0 mm 4 mps 741 mmHg 92%
    03:00 +14°C° 0 mm 4 mps 742 mmHg 93%
    04:00 +13°C° 0 mm 4 mps 742 mmHg 93%
    05:00 +13°C° 0 mm 4 mps 743 mmHg 93%
    06:00 +12°C° 0 mm 4 mps 744 mmHg 93%
    07:00 +13°C° 0 mm 4 mps 744 mmHg 86%
    08:00 +14°C° 0 mm 5 mps 744 mmHg 80%
    09:00 +15°C° 0 mm 5 mps 745 mmHg 73%
    10:00 +16°C° 0 mm 5 mps 745 mmHg 67%
    11:00 +17°C° 0 mm 6 mps 745 mmHg 61%
    12:00 +19°C° 0 mm 6 mps 745 mmHg 56%
    13:00 +20°C° 0 mm 6 mps 746 mmHg 54%
    14:00 +20°C° 0 mm 6 mps 746 mmHg 53%
    15:00 +21°C° 0 mm 6 mps 746 mmHg 52%
    16:00 +20°C° 0 mm 5 mps 746 mmHg 55%
    17:00 +20°C° 0 mm 4 mps 747 mmHg 58%
    18:00 +19°C° 0 mm 4 mps 747 mmHg 62%
    19:00 +18°C° 0 mm 3 mps 747 mmHg 66%
    20:00 +16°C° 0 mm 3 mps 748 mmHg 69%
    21:00 +14°C° 0 mm 2 mps 748 mmHg 73%
    22:00 +14°C° 0 mm 2 mps 748 mmHg 75%
    23:00 +13°C° 0 mm 2 mps 749 mmHg 76%

    23 August, Thursday

    Time Temperature Precipitation Wind Pressure Humidity
    00:00 +13°C° 0 mm 2 mps 749 mmHg 78%
    01:00 +12°C° 0 mm 2 mps 749 mmHg 78%
    02:00 +12°C° 0 mm 2 mps 749 mmHg 79%
    03:00 +10°C° 0 mm 2 mps 749 mmHg 79%
    04:00 +10°C° 0 mm 2 mps 749 mmHg 79%
    05:00 +10°C° 0 mm 2 mps 750 mmHg 79%
    06:00 +9°C° 0 mm 2 mps 750 mmHg 79%
    07:00 +12°C° 0 mm 2 mps 750 mmHg 73%
    08:00 +14°C° 0 mm 2 mps 750 mmHg 66%
    09:00 +16°C° 0 mm 2 mps 750 mmHg 60%
    10:00 +17°C° 0 mm 2 mps 750 mmHg 56%
    11:00 +18°C° 0 mm 2 mps 750 mmHg 51%
    12:00 +20°C° 0 mm 3 mps 750 mmHg 47%
    13:00 +20°C° 0 mm 3 mps 749 mmHg 47%
    14:00 +21°C° 0 mm 3 mps 749 mmHg 46%
    15:00 +21°C° 0 mm 4 mps 749 mmHg 46%
    16:00 +21°C° 0 mm 3 mps 749 mmHg 51%
    17:00 +20°C° 0 mm 3 mps 748 mmHg 55%
    18:00 +20°C° 0 mm 2 mps 748 mmHg 60%
    19:00 +19°C° 0 mm 2 mps 748 mmHg 63%
    20:00 +17°C° 0 mm 2 mps 748 mmHg 66%
    21:00 +15°C° 0 mm 2 mps 748 mmHg 69%
    22:00 +14°C° 0 mm 3 mps 748 mmHg 71%
    23:00 +14°C° 0 mm 3 mps 748 mmHg 73%
    Show more